(393) Lampetia
ephemeris date magn radius delta ra dec elong phase
Today14 Jul 202614.93.542 AU4.372 AU09h19m+04°24'31.3°8.6°
Opposition27 Mar 202712.42.922 AU1.934 AU12h09m-11°40'170.2°3.3°
(393) Lampetia - 2026-07-14
astro.vanbuitenen.nl


 
-1 year
-1 month
-1 day
Now
+1 day
+1 month
+1 year

The interactive orbit chart above shows the body's path through the solar system and its position at the given date. Green and blue lines are shown perpendicular to the ecliptic plane: Green if the path is above the ecliptic plane, blue if it is below. (Left-click and drag to rotate the view; Right-click and drag to move the view; Use scroll wheel to zoom in our out.)

The orbital elements of Lampetia are:

            e (Eccentricity)                : 0.3339475
            a (Semimajor axis)              : 2.7783174
            i (Inclination)                 : 14.83204
            Ω (Longitude of ascending node) : 211.87273
            ω (Argument of perihelion)      : 91.71309
            M (Mean anomaly)                : 217.96235
            Epoch                           : 2026 Jun 09

            L (Longitude of perihelion)     : 123.64483
            B (Latitude of perihelion)      : 14.82526
            P (Orbital period in years)     : 4.63            
        

The light curve chart below shows the estimated development of the minor planet's magnitude.


The all-sky chart below shows the path of the minor planet over the same period as the light curve. The current position is marked yellow.





The following chart shows the path of the minor planet in the next few days. The field of view is optimized for (~10x50) binoculars and finderscopes.




Ephemerides:
Date       Time       RA (2000)    DEC (2000)    delta   radius  elong  phase   PA    magn
2026-07-14 00:00 UT   09 19 09.6   +04 24 03     4.372    3.542   31.3    8.6   126   14.9 
2026-07-14 14:21 UT   09 19 50.5   +04 21 52     4.375    3.542   30.9    8.5   126   14.9 
2026-07-15 00:00 UT   09 20 18.1   +04 20 23     4.377    3.541   30.6    8.4   127   14.9 
2026-07-16 00:00 UT   09 21 26.7   +04 16 39     4.383    3.539   30.0    8.3   127   14.9 
2026-07-17 00:00 UT   09 22 35.6   +04 12 51     4.388    3.538   29.4    8.1   128   14.9 
2026-07-18 00:00 UT   09 23 44.6   +04 08 60     4.393    3.536   28.8    8.0   128   14.9 
2026-07-19 00:00 UT   09 24 53.8   +04 05 04     4.398    3.535   28.2    7.8   129   14.9 
2026-07-20 00:00 UT   09 26 03.2   +04 01 05     4.403    3.533   27.6    7.6   129   14.9 
2026-07-21 00:00 UT   09 27 12.7   +03 57 02     4.407    3.532   27.0    7.5   130   14.9 
2026-07-22 00:00 UT   09 28 22.3   +03 52 56     4.412    3.530   26.3    7.3   131   14.9 
2026-07-23 00:00 UT   09 29 32.1   +03 48 45     4.416    3.528   25.7    7.2   131   14.8 
2026-07-24 00:00 UT   09 30 42.0   +03 44 32     4.420    3.527   25.1    7.0   132   14.8 
2026-07-25 00:00 UT   09 31 52.1   +03 40 14     4.424    3.525   24.5    6.9   132   14.8 
2026-07-26 00:00 UT   09 33 02.2   +03 35 54     4.428    3.524   23.9    6.7   133   14.8 
2026-07-27 00:00 UT   09 34 12.6   +03 31 29     4.431    3.522   23.4    6.6   134   14.8 
2026-07-28 00:00 UT   09 35 23.0   +03 27 01     4.435    3.520   22.8    6.4   135   14.8 
2026-07-29 00:00 UT   09 36 33.5   +03 22 30     4.438    3.519   22.2    6.3   136   14.8 
2026-07-30 00:00 UT   09 37 44.2   +03 17 56     4.441    3.517   21.6    6.1   136   14.8 
2026-07-31 00:00 UT   09 38 55.0   +03 13 18     4.444    3.515   21.0    5.9   137   14.8 
2026-08-01 00:00 UT   09 40 05.9   +03 08 36     4.447    3.514   20.5    5.8   138   14.8 
2026-08-02 00:00 UT   09 41 16.9   +03 03 52     4.449    3.512   19.9    5.6   139   14.8 
2026-08-03 00:00 UT   09 42 28.0   +02 59 04     4.452    3.510   19.3    5.5   140   14.8 
2026-08-04 00:00 UT   09 43 39.2   +02 54 12     4.454    3.509   18.8    5.3   141   14.8 
2026-08-05 00:00 UT   09 44 50.5   +02 49 18     4.456    3.507   18.2    5.2   142   14.8 
2026-08-06 00:00 UT   09 46 01.9   +02 44 20     4.458    3.505   17.7    5.0   144   14.8 
2026-08-07 00:00 UT   09 47 13.4   +02 39 19     4.460    3.504   17.1    4.9   145   14.7 
2026-08-08 00:00 UT   09 48 24.9   +02 34 15     4.462    3.502   16.6    4.8   146   14.7 
2026-08-09 00:00 UT   09 49 36.6   +02 29 07     4.463    3.500   16.1    4.6   148   14.7 
2026-08-10 00:00 UT   09 50 48.3   +02 23 57     4.464    3.498   15.6    4.5   149   14.7 
2026-08-11 00:00 UT   09 52 00.1   +02 18 43     4.465    3.497   15.1    4.3   151   14.7 


    Terminology:
            
    delta:  distance between minor planet and earth in AU
    radius: distance between minor planet and sun in AU
    magn:   magnitude (brightness) estimate    
    ra:     right ascension in hours (24h = 360deg)
    dec:    declination in degrees
    elong:  elongation in degrees (angle sun-earth-minor planet)    
    phase:  phase angle in degrees (angle sun-minor planet-earth)        
    AU:     Astronomical Unit (mean distance between earth and sun: 149597870.7 km
    

Orbital elements provided by the MPC (Minor Planet Center).
Calculations by a modified version of AAPlus, a C# implementation of the AA+ project by PJ Naughter from the algorithms presented in the book "Astronomical Algorithms" by Jean Meeus.
NGC2000 dso catalog and star labels from VizieR as provided by the Strasbourg astronomical Data Center.
Tycho2 catalog from the ESO archive.